Parsons, KS

2:30 AM CDT on September 19, 2019 (GMT -0500)
Tri-City

Weather History for KPPF - July, 2019

Change the Weather History Date:

Saturday, July 27, 2019

  Actual Average Record
Temperature  
Mean Temperature 75 °F -  
Max Temperature 88 °F 91 °F 105 °F (2011)
Min Temperature 62 °F 69 °F 53 °F (2004)
Cooling Degree Days 10    
Growing Degree Days 25 (Base 50)    
Moisture  
Dew Point 64 °F    
Average Humidity 70    
Maximum Humidity 96    
Minimum Humidity 48    
Precipitation  
Precipitation 0.00 in - - ()
Sea Level Pressure  
Sea Level Pressure 30.14 in    
Wind  
Wind Speed 4 mph (South)    
Max Wind Speed 10 mph    
Max Gust Speed 21 mph    
Visibility 10 miles    
Events      
Averages and records for this station are not official NWS values.
T = Trace of Precipitation, MM = Missing Value Source: NWS Daily Summary

Daily Weather History Graph

Daily Weather History Graph

Search for Another Location

Airport or City:

Astronomy

Jul. 27, 2019 Rise Set
Actual Time 6:22 AM CDT 8:34 PM CDT
Civil Twilight 5:52 AM CDT 9:03 PM CDT
Nautical Twilight 5:17 AM CDT 9:39 PM CDT
Astronomical Twilight 4:37 AM CDT 10:18 PM CDT
Moon 2:07 AM CDT (7/27) 4:27 PM CDT (7/27)
Length of Visible Light 15h 10m
Length of Day
14h 12m
Waning Crescent, 24% of the Moon is Illuminated
Jul 27
Waning Crescent
Jul 31
New
Aug 7
First Quarter
Aug 15
Full
Aug 23
Last Quarter

Hourly Weather History & Observations

Time (CDT) Temp. Heat Index Dew Point Humidity Pressure Visibility Wind Dir Wind Speed Gust Speed Precip Events Conditions
12:52 AM 70.0 °F - 60.1 °F 71% 30.15 in 10.0 mi South 3.5 mph - N/A   Clear
1:52 AM 64.9 °F - 61.0 °F 87% 30.14 in 10.0 mi Calm Calm - N/A   Clear
2:52 AM 63.0 °F - 60.1 °F 90% 30.13 in 10.0 mi Calm Calm - N/A   Clear
3:52 AM 62.1 °F - 60.1 °F 93% 30.13 in 10.0 mi Calm Calm - N/A   Clear
4:52 AM 64.0 °F - 61.0 °F 90% 30.13 in 10.0 mi Calm Calm - N/A   Clear
5:52 AM 62.1 °F - 61.0 °F 96% 30.16 in 10.0 mi Calm Calm - N/A   Clear
6:52 AM 63.0 °F - 61.0 °F 93% 30.17 in 10.0 mi Calm Calm - N/A   Clear
7:52 AM 69.1 °F - 64.9 °F 87% 30.19 in 10.0 mi South 3.5 mph - N/A   Clear
8:52 AM 73.9 °F - 66.0 °F 76% 30.20 in 10.0 mi South 5.8 mph - N/A   Clear
9:52 AM 78.1 °F - 66.0 °F 66% 30.20 in 10.0 mi SSW 6.9 mph - N/A   Clear
10:52 AM 81.0 °F 83.3 °F 66.9 °F 62% 30.19 in 10.0 mi South 10.4 mph - N/A   Clear
11:52 AM 82.9 °F 85.4 °F 66.9 °F 58% 30.17 in 10.0 mi SSW 10.4 mph 19.6 mph N/A   Clear
12:52 PM 86.0 °F 87.6 °F 64.9 °F 49% 30.16 in 10.0 mi SSW 10.4 mph 18.4 mph N/A   Clear
1:52 PM 86.0 °F 87.6 °F 64.9 °F 49% 30.15 in 10.0 mi SW 8.1 mph 19.6 mph N/A   Partly Cloudy
2:52 PM 88.0 °F 90.3 °F 66.0 °F 48% 30.14 in 10.0 mi South 10.4 mph 20.7 mph N/A   Partly Cloudy
3:52 PM 87.1 °F 89.2 °F 66.0 °F 49% 30.12 in 10.0 mi SSE 9.2 mph 17.3 mph N/A   Partly Cloudy
4:52 PM 86.0 °F 87.6 °F 64.9 °F 49% 30.11 in 10.0 mi South 9.2 mph 18.4 mph N/A   Clear
5:52 PM 86.0 °F 88.2 °F 66.0 °F 51% 30.10 in 10.0 mi South 6.9 mph - N/A   Clear
6:52 PM 84.9 °F 87.1 °F 66.0 °F 53% 30.09 in 10.0 mi South 5.8 mph - N/A   Clear
8:52 PM 75.9 °F - 66.9 °F 74% 30.08 in 10.0 mi Calm Calm - N/A   Clear
9:52 PM 75.9 °F - 66.9 °F 74% 30.09 in 10.0 mi SE 3.5 mph - N/A   Clear